#timestamp,LO_Frequency,Hit 
1503586815.2,286047018.7,N
1503586835.9,286047018.5,N
1503586855.7,286047016.0,N
1503586875.6,286047018.0,N
1503586895.4,286047019.4,N
1503586915.2,286047015.7,N
1503586935.0,286047016.4,N
1503586936.0,286047016.4,N
1503586955.8,286047013.3,N
1503586975.6,286047015.0,N
1503586995.4,286047013.0,N
1503587015.3,286047016.1,N
1503587035.1,286047015.2,N
1503587055.8,286047014.0,N
1503587075.7,286047011.3,N
1503587095.5,286047013.4,N
1503587115.3,286047014.2,N
1503587135.2,286047018.6,N
1503587155.9,286047015.1,N
1503587175.7,286047013.4,N
1503587195.6,286047014.4,N
1503587215.4,286047015.8,N
1503587235.2,286047018.3,P
1503587255.1,286047003.2,N
1503587256.0,286047003.2,N
1503587275.8,286047003.7,N
1503587295.6,286047004.1,N
1503587315.5,286046999.0,N
1503587335.3,286046997.8,N
1503587355.1,286046996.8,N
1503587375.9,286046998.8,N
1503587395.7,286046998.9,N
1503587415.5,286046999.4,N
1503587435.3,286046996.7,N
1503587455.2,286046999.3,N
1503587475.0,286046999.5,N
1503587475.9,286046999.5,N
1503587495.7,286046998.2,N
1503587515.6,286046996.6,N
1503587535.4,286046998.1,N
1503587555.2,286046998.5,N
1503587575.1,286046996.5,N
1503587576.0,286046996.5,N
1503587595.8,286046997.8,N
1503587615.6,286046997.6,N
1503587635.5,286046997.5,N
1503587655.3,286046992.6,N
1503587675.1,286046988.8,N
1503587695.9,286046987.5,N
1503587715.7,286046986.0,N
1503587735.5,286046983.8,N
1503587755.3,286046983.5,N
1503587775.2,286046985.2,N
1503587795.0,286046984.8,N
1503587795.9,286046984.8,N
1503587815.7,286046984.9,N
1503587835.6,286046986.0,N
1503587855.4,286046988.4,N
1503587875.2,286046985.0,N
1503587895.1,286046983.1,N
1503587896.0,286046983.1,N
1503587915.8,286046984.8,N
1503587935.6,286046983.7,N
1503587955.5,286046984.6,N
1503587975.3,286046982.3,N
1503587995.1,286046979.0,P
1503588015.9,286046990.1,N
1503588035.7,286046989.6,N
1503588055.5,286046990.0,N
1503588075.4,286046988.4,N
1503588095.2,286046989.9,N
1503588115.0,286046987.0,P
1503588115.9,286046987.0,P
1503588135.8,286047000.4,N
1503588155.6,286047000.8,N
1503588175.4,286047000.4,N
1503588195.3,286047002.8,N
1503588215.1,286047001.9,N
1503588216.0,286047001.9,N
1503588235.8,286047004.2,N
1503588255.7,286047001.0,N
1503588275.5,286047000.2,N
1503588295.3,286047002.3,N
1503588315.2,286047001.7,N
1503588335.9,286047003.5,N
1503588355.7,286047000.0,N
1503588375.6,286047000.3,N
1503588395.4,286046999.6,N
1503588415.2,286046997.7,N
1503588435.0,286046999.6,N
1503588435.9,286046999.6,N
1503588455.8,286046998.3,N
1503588475.6,286046998.7,N
1503588495.4,286046998.8,N
1503588515.3,286047000.5,N
1503588535.1,286047004.0,N
1503588536.0,286047004.0,N
1503588555.8,286047001.4,N
1503588575.7,286047005.0,N
1503588595.5,286046998.7,N
1503588615.3,286046998.1,N
1503588635.2,286046997.0,N
1503588655.9,286046997.7,N
1503588675.7,286046996.7,N
1503588695.6,286046992.6,P
1503588715.4,286046990.6,N
1503588735.2,286046988.7,N
1503588755.1,286046987.0,N
1503588756.0,286046987.0,N
1503588775.8,286046988.9,N
1503588795.6,286046993.0,N
1503588815.5,286046993.7,N
1503588835.3,286046994.3,N
1503588855.1,286046991.5,N
1503588875.9,286046988.7,P
1503588895.7,286046997.2,N
1503588915.5,286046997.0,N
1503588935.4,286046997.2,N
1503588955.2,286046993.4,N
1503588975.0,286046995.4,N
1503588975.9,286046995.4,N
1503588995.7,286046995.9,N
1503589015.6,286046995.3,N
1503589035.4,286046996.8,N
1503589055.2,286046998.6,N
1503589075.1,286046997.0,N
1503589076.0,286046997.0,N
1503589095.8,286046994.9,N
1503589115.6,286046992.4,P
1503589135.5,286046995.9,N
1503589155.3,286046998.1,N
1503589175.1,286047002.0,N
1503589195.9,286047001.3,N
1503589215.7,286047004.9,N
1503589235.5,286047004.7,N
1503589255.4,286047006.9,N
1503589275.2,286047007.8,N
1503589295.0,286047003.0,N
1503589295.9,286047003.0,N
1503589315.8,286046996.9,N
1503589335.6,286046995.6,N
1503589355.4,286046995.4,N
1503589375.3,286046990.2,N
1503589395.1,286046989.4,N
1503589396.0,286046989.4,N
1503589415.8,286046988.5,N
1503589435.7,286046988.9,N
1503589455.5,286046991.3,N
1503589475.3,286046994.4,N
1503589495.1,286046994.1,N
1503589515.9,286046992.3,N
1503589535.7,286046994.2,N
1503589555.5,286046989.5,N
1503589575.4,286046989.0,N
1503589595.2,286046990.3,N
1503589615.0,286046991.7,N
1503589615.9,286046991.7,N
1503589635.8,286046989.2,N
1503589655.6,286046991.1,N
1503589675.4,286046992.4,N
1503589695.3,286046991.1,N
1503589715.1,286046994.2,N
1503589716.0,286046994.2,N
1503589735.8,286046994.0,N
1503589755.7,286046996.3,N
1503589775.5,286046997.5,N
1503589795.3,286046995.6,N
1503589815.2,286046998.9,N
1503589835.9,286046998.1,N
1503589855.7,286046994.4,N
1503589875.6,286046990.6,P
1503589895.4,286047000.3,N
1503589915.2,286046998.5,N
1503589935.1,286047000.5,N
1503589936.0,286047000.5,N
1503589955.8,286047001.6,N
1503589975.6,286047007.5,N
1503589995.4,286047009.5,N
1503590015.3,286047007.8,N
1503590035.1,286047007.8,N
1503590055.8,286047009.2,N
1503590075.7,286047006.3,N
1503590095.5,286047006.3,N
1503590115.3,286047007.8,N
1503590135.2,286047008.9,N
1503590155.9,286047007.7,N
1503590175.7,286047011.0,N
1503590195.6,286047010.0,N
1503590215.4,286047010.3,N
1503590235.2,286047013.0,N
1503590255.1,286047011.6,N
1503590256.0,286047011.6,N
1503590275.8,286047010.2,N
1503590295.6,286047009.4,N
1503590315.5,286047009.6,N
1503590335.3,286047011.8,N
1503590355.1,286047007.1,N
1503590375.8,286047007.0,N
1503590395.7,286047005.3,N
